Location: LDNL
(36.4545°S, 141.6685°E)
Time: 18:55:26
(UTC+10:00)

HuskySat-1 - Visible Passes

Search period start: 16 May 2022 00:00
Search period end: 26 May 2022 00:00
Orbit: 422 x 434 km, 51.6° (Epoch: 15 May)

Date Brightness Start Highest point End Pass type
(mag) Time Alt. Az. Time Alt. Az. Time Alt. Az.
16 May ? 19:44:02 10° SSW 19:44:06 10° SSW 19:44:06 10° SSW visible
17 May ? 18:59:39 10° SSW 19:01:28 18° S 19:01:28 18° S visible
18 May ? 18:15:17 10° SSW 18:17:20 15° SSE 18:18:53 12° SE visible
18 May ? 19:51:18 10° SW 19:52:02 16° SW 19:52:02 16° SW visible
19 May ? 19:06:32 10° SW 19:09:33 47° S 19:09:33 47° S visible
20 May ? 18:21:48 10° SSW 18:25:00 32° SE 18:27:13 16° E visible
20 May ? 19:59:00 10° WSW 20:00:25 18° W 20:00:25 18° W visible
21 May ? 19:13:42 10° WSW 19:17:01 41° NW 19:18:20 28° N visible
22 May ? 18:28:32 10° SW 18:32:01 74° NW 18:35:28 10° NE visible
23 May ? 19:22:16 10° WNW 19:23:27 11° NW 19:24:38 10° NNW visible
24 May ? 18:35:51 10° W 18:38:25 19° NW 18:40:58 10° N visible
